Flag for Russia Weather past 2 weeks in Yakutsk, Russia

-29 °F


Feels Like: -41 °F
Forecast: -36 / -27 °F
Wind: 3 mph from North

Location: Jakutsk

Current Time: Nov 26, 2015 at 4:13:55 PM

Latest Report: Nov 26, 2015 at 3:30 PM

Visibility: 10 mi

Pressure: 30.33 "Hg

Humidity: 74%

Dew point: -35 °F

Location of YakutskLocation

Historic Weather in Yakutsk — Graph


Yakutsk temperature yesterday

Maximum temperature yesterday: -26 °F (at 1:30 PM)
Minimum temperature yesterday: -33 °F (at 2:00 AM)
Average temperature yesterday: -30 °F

Past Weeks' High & Low Weather Summary

High3 °F (Nov 12, 2:00 PM)92% (Nov 12, 7:30 PM)30.74 "Hg (Nov 12, 7:30 PM)
Low-33 °F (Nov 23, 8:00 AM)66% (Nov 25, 6:00 AM)30.12 "Hg (Nov 16, 11:30 AM)
Average-16 °F76%30.42 "Hg
* Reported Nov 11 3:00 PM — Nov 26 3:00 PM, Yakutsk, Weather by CustomWeather, © 2015

Note: Actual official high and low records may vary slightly from our data, if they occured in-between our weather recording intervals... More about our weather records


Yakutsk weather history for previous 24 hours

Time TempWeatherWind HumidityBarometerVisibility
3:00 PM
Thu, Nov 26
-29 °FSunny.3 mph74%30.33 "Hg10 mi
2:30 PM-27 °FSunny.3 mph67%30.36 "Hg10 mi
2:00 PM-27 °FSunny.3 mph74%30.36 "Hg10 mi
1:30 PM-27 °FLight snow. Clear.3 mph67%30.36 "HgN/A
12:30 PM-29 °FLight snow. Ice fog.3 mph74%30.36 "Hg3 mi
12:00 PM-29 °FLight snow. Ice fog.6 mph74%30.39 "Hg3 mi
11:30 AM-29 °FLight snow. Ice fog.6 mph74%30.39 "Hg3 mi
11:00 AM-29 °FLight snow. Ice fog.6 mph67%30.39 "Hg3 mi
10:30 AM-29 °FIce fog.3 mph67%30.39 "Hg3 mi
10:00 AM-29 °FIce fog.3 mph67%30.39 "Hg3 mi
9:30 AM-29 °FScattered clouds.3 mph67%30.42 "HgN/A
9:00 AM-31 °FScattered clouds.3 mph74%30.42 "HgN/A
8:30 AM-31 °FLight snow. Passing clouds.3 mph74%30.42 "HgN/A
8:00 AM-31 °FLight snow. Passing clouds.3 mph74%30.42 "HgN/A
7:30 AM-31 °FLight snow. Passing clouds.3 mph74%30.42 "HgN/A
7:00 AM-31 °FLight snow. Passing clouds.1 mph74%30.42 "HgN/A
6:30 AM-31 °FLight snow. Passing clouds.3 mph67%30.42 "HgN/A
6:00 AM-31 °FLight snow. Passing clouds.3 mph67%30.45 "HgN/A
5:30 AM-31 °FLight snow. Passing clouds.3 mph67%30.45 "HgN/A
5:00 AM-31 °FPassing clouds.1 mph67%30.45 "HgN/A
4:30 AM-31 °FClear.1 mph67%30.45 "Hg10 mi
4:00 AM-31 °FClear.1 mph67%30.48 "Hg10 mi
3:30 AM-31 °FClear.1 mph67%30.48 "Hg10 mi
3:00 AM-31 °FClear.1 mph67%30.48 "Hg10 mi
2:30 AM-31 °FClear.1 mph67%30.48 "Hg10 mi
2:00 AM-31 °FClear.1 mph67%30.48 "Hg10 mi
1:30 AM-31 °FClear.1 mph67%30.51 "Hg10 mi
1:00 AM-31 °FClear.1 mph67%30.51 "Hg10 mi
12:30 AM-31 °FClear.1 mph67%30.51 "Hg10 mi
12:00 AM-31 °FLight snow. Clear.1 mph67%30.51 "HgN/A
11:30 PM
Wed, Nov 25
-31 °FLight snow. Clear.1 mph67%30.51 "HgN/A
11:00 PM-31 °FLight snow. Clear.1 mph67%30.51 "HgN/A
10:30 PM-31 °FLight snow. Clear.No wind74%30.54 "HgN/A
10:00 PM-31 °FClear.1 mph74%30.54 "Hg10 mi
9:30 PM-31 °FClear.No wind74%30.54 "Hg10 mi
9:00 PM-29 °FClear.1 mph67%30.54 "Hg10 mi
8:30 PM-29 °FClear.1 mph67%30.57 "Hg10 mi
8:00 PM-29 °FClear.1 mph67%30.57 "Hg10 mi
7:30 PM-29 °FClear.1 mph74%30.57 "Hg10 mi
7:00 PM-29 °FClear.1 mph74%30.57 "Hg10 mi
6:30 PM-29 °FClear.1 mph67%30.57 "Hg10 mi
6:00 PM-29 °FClear.1 mph74%30.57 "Hg10 mi
5:30 PM-29 °FClear.1 mph74%30.57 "Hg10 mi
5:00 PM-29 °FClear.1 mph67%30.57 "Hg10 mi
4:30 PM-29 °FClear.1 mph74%30.60 "Hg10 mi
4:00 PM-27 °FClear.No wind67%30.60 "Hg10 mi
Weather by CustomWeather, © 2015

See weather overviewHow to use our weather pages